sat.trackr.live / text

‹ back to catalog

HULIANWANG DIGUI-29

NORAD 63696 · 2025-086K

PAYLOAD ACTIVE UNKNOWN

§ Identity

Operator
Country
PRC
Launch date
2025-04-28
Launch site
WSC
Launch vehicle
Mass (kg)
RCS (m²)

External: N2YO · Heavens-Above · Gunter

§ Orbital elements

Epoch: 2026-09-21T22:30:39.275712Z

Period
108.73 min
Inclination
86.4964°
Eccentricity
0.0001875
Mean motion
13.24412674 rev/d
Perigee alt
1,166.5 km
Apogee alt
1,169.3 km
Semi-major
7,546.0 km
B*
-1.6439e-4
RAAN
280.4380°
Arg perigee
79.2351°
Mean anomaly
280.8994°
Rev number
6,766

§ Raw data

HULIANWANG DIGUI-291 63696U 25086K   26264.93795458 -.00000056  00000+0 -16439-3 0  99992 63696  86.4964 280.4380 0001875  79.2351 280.8994 13.24412674 67661

JSON: /api/v1/satellites/63696 · /tle

For live sub-satellite position, see the globe view (requires WebGL).

§ Visibility from observer

Set your observer location to see the next 7 days of passes ≥ 10°. The values pass through the URL so the page stays shareable.

No JS? Fill the form by hand. The geolocation button needs JavaScript.